Del Norte, CO

4:49 AM MDT on July 25, 2016 (GMT -0600)
Wolf Creek Pass

Weather History for KCPW - November, 2012

Change the Weather History Date:

Friday, November 23, 2012

  Actual Average (KALS) Record (KALS)
Temperature  
Mean Temperature 30 °F 26 °F  
Max Temperature 35 °F 43 °F 64 °F (1954)
Min Temperature 24 °F 9 °F -15 °F (1979)
Degree Days  
Heating Degree Days 36 39  
Month to date heating degree days 776  
Since 1 July heating degree days 1886  
Cooling Degree Days 0 0  
Month to date cooling degree days 0  
Year to date cooling degree days 51  
Moisture  
Dew Point 12 °F    
Average Humidity 50    
Maximum Humidity 64    
Minimum Humidity 25    
Precipitation  
Precipitation 0.00 in 0.01 in 0.35 in (2007)
Month to date precipitation 0.34  
Year to date precipitation 6.88  
Snow  
Snow 0.00 in 0.10 in 3.30 in (2007)
Month to date snowfall 2.8  
Since 1 July snowfall 4.9  
Since 1 September snowfall 4.9  
Snow Depth -    
Sea Level Pressure  
Sea Level Pressure 30.56 in    
Wind  
Wind Speed 11 mph (SW)    
Max Wind Speed 17 mph    
Max Gust Speed 21 mph    
Visibility 10 miles    
Events      
T = Trace of Precipitation, MM = Missing Value Source: NWS Daily Summary

Daily Weather History Graph

Daily Weather History Graph

Search for Another Location

Airport or City:

Trip Planner

Search our weather history database for the weather conditions in past years. The results will help you decide how hot, cold, wet, or windy it might be!

Date:

Astronomy

Nov. 23, 2012 Rise Set
Actual Time 6:55 AM MST 4:51 PM MST
Civil Twilight 6:27 AM MST 5:20 PM MST
Nautical Twilight 5:55 AM MST 5:52 PM MST
Astronomical Twilight 5:23 AM MST 6:23 PM MST
Moon 2:03 PM MST (11/23) 2:22 AM MST (11/23)
Length of Visible Light 10h 52m
Length of Day
9h 56m
Waxing Gibbous, 80% of the Moon is Illuminated
Nov 23
Waxing Gibbous
Nov 28
Full
Dec 6
Last Quarter
Dec 13
New
Dec 19
First Quarter

Hourly Weather History & Observations

Time (MST) Temp. Windchill Dew Point Humidity Pressure Visibility Wind Dir Wind Speed Gust Speed Precip Events Conditions
12:01 AM 30.2 °F 22.6 °F -2.2 °F 25% 30.52 in 10.0 mi WSW 8.1 mph - N/A   Clear
12:21 AM 30.2 °F 22.6 °F -0.4 °F 27% 30.52 in 10.0 mi SW 8.1 mph - N/A   Clear
12:41 AM 30.2 °F 21.3 °F -0.4 °F 27% 30.52 in 10.0 mi WSW 10.4 mph - N/A   Clear
1:01 AM 30.2 °F 20.2 °F 1.4 °F 29% 30.52 in 10.0 mi WSW 12.7 mph 18.4 mph N/A   Clear
1:21 AM 30.2 °F 20.2 °F 3.2 °F 32% 30.52 in 10.0 mi WSW 12.7 mph - N/A   Clear
1:41 AM 30.2 °F 21.3 °F 5.0 °F 34% 30.52 in 10.0 mi WSW 10.4 mph 17.3 mph N/A   Clear
2:01 AM 28.4 °F 19.7 °F 3.2 °F 34% 30.52 in 10.0 mi SW 9.2 mph - N/A   Clear
2:21 AM 28.4 °F 17.0 °F 1.4 °F 31% 30.52 in 10.0 mi SW 15.0 mph - N/A   Clear
2:41 AM 28.4 °F 17.5 °F 3.2 °F 34% 30.53 in 10.0 mi SW 13.8 mph - N/A   Clear
3:01 AM 28.4 °F 17.0 °F 3.2 °F 34% 30.54 in 10.0 mi SW 15.0 mph - N/A   Clear
3:21 AM 26.6 °F 13.8 °F 8.6 °F 47% 30.53 in 10.0 mi SW 17.3 mph - N/A   Clear
3:41 AM 26.6 °F 15.7 °F 10.4 °F 51% 30.54 in 10.0 mi SW 12.7 mph - N/A   Clear
4:01 AM 26.6 °F 14.7 °F 8.6 °F 47% 30.53 in 10.0 mi SW 15.0 mph - N/A   Clear
4:21 AM 26.6 °F 15.2 °F 10.4 °F 51% 30.53 in 10.0 mi SW 13.8 mph - N/A   Clear
4:41 AM 26.6 °F 15.2 °F 10.4 °F 51% 30.53 in 10.0 mi SW 13.8 mph - N/A   Clear
5:01 AM 24.8 °F 12.9 °F 12.2 °F 59% 30.54 in 10.0 mi SW 13.8 mph - N/A   Clear
5:21 AM 24.8 °F 13.4 °F 12.2 °F 59% 30.54 in 10.0 mi SSW 12.7 mph - N/A   Clear
5:41 AM 24.8 °F 12.4 °F 12.2 °F 59% 30.54 in 10.0 mi SW 15.0 mph - N/A   Clear
6:01 AM 24.8 °F 12.4 °F 12.2 °F 59% 30.54 in 10.0 mi SW 15.0 mph - N/A   Clear
6:21 AM 24.8 °F 12.4 °F 12.2 °F 59% 30.54 in 10.0 mi SW 15.0 mph - N/A   Clear
6:41 AM 24.8 °F 12.4 °F 12.2 °F 59% 30.54 in 10.0 mi SSW 15.0 mph - N/A   Clear
7:01 AM 26.6 °F 15.2 °F 12.2 °F 55% 30.54 in 10.0 mi SW 13.8 mph - N/A   Clear
7:21 AM 26.6 °F 14.7 °F 12.2 °F 55% 30.55 in 10.0 mi SW 15.0 mph - N/A   Clear
7:41 AM 26.6 °F 15.2 °F 12.2 °F 55% 30.56 in 10.0 mi SSW 13.8 mph - N/A   Clear
8:01 AM 26.6 °F 16.2 °F 12.2 °F 55% 30.57 in 10.0 mi SSW 11.5 mph - N/A   Clear
8:19 AM 28.4 °F 18.0 °F 12.2 °F 51% 30.57 in 10.0 mi SSW 12.7 mph 18.4 mph N/A   Clear
8:41 AM 30.2 °F 22.6 °F 12.2 °F 47% 30.59 in 10.0 mi SSW 8.1 mph 16.1 mph N/A   Clear
9:01 AM 30.2 °F 22.6 °F 12.2 °F 47% 30.59 in 10.0 mi SSW 8.1 mph - N/A   Clear
9:21 AM 32.0 °F 24.2 °F 14.0 °F 48% 30.59 in 10.0 mi SSW 9.2 mph - N/A   Clear
9:41 AM 32.0 °F 23.6 °F 14.0 °F 48% 30.59 in 10.0 mi SSW 10.4 mph - N/A   Clear
10:01 AM 32.0 °F 24.2 °F 14.0 °F 48% 30.60 in 10.0 mi SW 9.2 mph - N/A   Clear
10:21 AM 32.0 °F 23.0 °F 14.0 °F 48% 30.61 in 10.0 mi SW 11.5 mph - N/A   Clear
10:41 AM 32.0 °F 22.5 °F 14.0 °F 48% 30.60 in 10.0 mi SSW 12.7 mph - N/A   Clear
11:01 AM 32.0 °F 23.0 °F 14.0 °F 48% 30.59 in 10.0 mi SW 11.5 mph - N/A   Clear
11:21 AM 32.0 °F 23.0 °F 14.0 °F 48% 30.59 in 10.0 mi SSW 11.5 mph 16.1 mph N/A   Clear
11:41 AM 32.0 °F 24.2 °F 15.8 °F 51% 30.59 in 10.0 mi SSW 9.2 mph - N/A   Clear
12:01 PM 32.0 °F 24.8 °F 15.8 °F 51% 30.59 in 10.0 mi SSW 8.1 mph 16.1 mph N/A   Clear
12:21 PM 33.8 °F 25.3 °F 15.8 °F 48% 30.58 in 10.0 mi SW 11.5 mph 17.3 mph N/A   Clear
12:41 PM 33.8 °F 27.0 °F 15.8 °F 48% 30.57 in 10.0 mi South 8.1 mph 17.3 mph N/A   Clear
1:01 PM 33.8 °F 25.8 °F 15.8 °F 48% 30.57 in 10.0 mi SSW 10.4 mph 20.7 mph N/A   Clear
1:21 PM 33.8 °F 26.4 °F 15.8 °F 48% 30.57 in 10.0 mi SSW 9.2 mph 18.4 mph N/A   Clear
1:41 PM 33.8 °F 24.8 °F 14.0 °F 44% 30.57 in 10.0 mi SW 12.7 mph 17.3 mph N/A   Clear
2:01 PM 33.8 °F 27.7 °F 15.8 °F 48% 30.57 in 10.0 mi SSW 6.9 mph 18.4 mph N/A   Clear
2:21 PM 35.6 °F 28.6 °F 15.8 °F 44% 30.57 in 10.0 mi SSW 9.2 mph 18.4 mph N/A   Clear
2:41 PM 33.8 °F 25.3 °F 14.0 °F 44% 30.56 in 10.0 mi SSW 11.5 mph 19.6 mph N/A   Clear
3:01 PM 33.8 °F 26.4 °F 14.0 °F 44% 30.57 in 10.0 mi SSW 9.2 mph 17.3 mph N/A   Clear
3:21 PM 33.8 °F 25.3 °F 14.0 °F 44% 30.56 in 10.0 mi SSW 11.5 mph 17.3 mph N/A   Clear
3:41 PM 33.8 °F 24.3 °F 15.8 °F 48% 30.57 in 10.0 mi SW 13.8 mph 17.3 mph N/A   Clear
4:01 PM 32.0 °F 23.6 °F 15.8 °F 51% 30.56 in 10.0 mi SW 10.4 mph 16.1 mph N/A   Clear
4:21 PM 32.0 °F 22.1 °F 17.6 °F 55% 30.56 in 10.0 mi SSW 13.8 mph 17.3 mph N/A   Clear
4:41 PM 30.2 °F 20.2 °F 15.8 °F 55% 30.57 in 10.0 mi SW 12.7 mph - N/A   Clear
5:00 PM 28.4 °F 19.1 °F 14.0 °F 55% 30.56 in 10.0 mi SW 10.4 mph - N/A   Clear
5:17 PM 28.4 °F 19.1 °F 15.8 °F 59% 30.56 in 10.0 mi SW 10.4 mph - N/A   Clear
5:35 PM 28.4 °F 17.5 °F 15.8 °F 59% 30.56 in 10.0 mi SW 13.8 mph - N/A   Clear
6:01 PM 28.4 °F 18.5 °F 14.0 °F 55% 30.56 in 10.0 mi SW 11.5 mph - N/A   Clear
6:21 PM 26.6 °F 17.5 °F 14.0 °F 59% 30.57 in 10.0 mi SW 9.2 mph - N/A   Clear
6:41 PM 26.6 °F 18.2 °F 14.0 °F 59% 30.57 in 10.0 mi SW 8.1 mph - N/A   Clear
7:01 PM 26.6 °F 18.2 °F 14.0 °F 59% 30.56 in 10.0 mi SSW 8.1 mph - N/A   Clear
7:21 PM 26.6 °F 17.5 °F 14.0 °F 59% 30.57 in 10.0 mi SSW 9.2 mph - N/A   Clear
7:41 PM 26.6 °F 16.8 °F 14.0 °F 59% 30.56 in 10.0 mi SW 10.4 mph - N/A   Clear
8:01 PM 26.6 °F 16.2 °F 14.0 °F 59% 30.56 in 10.0 mi SW 11.5 mph - N/A   Clear
8:21 PM 26.6 °F 15.7 °F 14.0 °F 59% 30.55 in 10.0 mi SSW 12.7 mph - N/A   Clear
8:41 PM 26.6 °F 15.2 °F 15.8 °F 64% 30.55 in 10.0 mi SW 13.8 mph - N/A   Clear
9:01 PM 26.6 °F 14.3 °F 14.0 °F 59% 30.55 in 10.0 mi SW 16.1 mph - N/A   Clear
9:21 PM 26.6 °F 14.7 °F 14.0 °F 59% 30.56 in 10.0 mi SW 15.0 mph - N/A   Clear
9:41 PM 26.6 °F 15.7 °F 14.0 °F 59% 30.57 in 10.0 mi SW 12.7 mph - N/A   Clear
10:01 PM 26.6 °F 16.8 °F 14.0 °F 59% 30.57 in 10.0 mi SW 10.4 mph - N/A   Clear
10:21 PM 26.6 °F 16.8 °F 14.0 °F 59% 30.57 in 10.0 mi SSW 10.4 mph - N/A   Clear
10:41 PM 26.6 °F 17.5 °F 14.0 °F 59% 30.56 in 10.0 mi SSW 9.2 mph - N/A   Clear
11:01 PM 26.6 °F 18.2 °F 14.0 °F 59% 30.56 in 10.0 mi SSW 8.1 mph - N/A   Clear
11:21 PM 26.6 °F 20.0 °F 14.0 °F 59% 30.56 in 10.0 mi West 5.8 mph - N/A   Clear
11:41 PM 26.6 °F 18.2 °F 8.6 °F 47% 30.55 in 10.0 mi WNW 8.1 mph - N/A   Clear